Погода в Усть-Мае

Россия / Республика Саха (Якутия)     60°24′56″N   134°32′26″E
темп.,
°C
ветер,
м/с
пор.,
м/с
влажн.,
%
обл.,
%
осадки,
мм/ч
давл.,
гПа
погр.,
м
27 февраля, сб
сб2700:00−33всв11970 0.0 103419
03:00−34всв12970 0.0 103319
06:00−35св11980 0.0 103219
09:00−31всв23960 0.0 1030122
12:00−25в249321 0.0 1028287
15:00−22всв369231 0.0 1024337
18:00−26св229592 0.0 102219
21:00−26св259592 0.0 1019113
28 февраля, вс
вс2800:00−26св3692100 0.0 1016132
03:00−26всв2291100 0.0 101422
06:00−26в1288100 0.0 101519
09:00−23ююз2696100 0.0 1016311
12:00−21юз3592100 0.3 1019695
15:00−22зюз3689100 0.3 1020796
18:00−24з1295100 0.1 102337
21:00−25зюз2597100 0.1 1025207
1 марта, пн
пн100:00−29зюз259698 0.0 1026108
03:00−30зюз239799 0.0 102697
06:00−32зюз2297100 0.0 102735
09:00−30зюз239698 0.0 1028142
12:00−25зсз248797 0.0 1027818
15:00−25зсз248599 0.1 10261019
18:00−28сз1293100 0.0 102719
21:00−30зсз229499 0.0 102719
2 марта, вт
вт200:00−33зсз229680 0.0 102719
03:00−33зсз229688 0.0 102724
06:00−32зсз2596100 0.0 1027163
09:00−30зсз2495100 0.1 1027296
12:00−27зсз2394100 0.1 1026532
15:00−26зсз2391100 0.3 1026690
18:00−28сз1298100 0.1 102619
21:00−29сз1297100 0.1 102727
3 марта, ср
ср300:00−29сз1198100 0.1 102619
03:00−29сз0198100 0.1 102519
06:00−30сз0198100 0.1 102519
09:00−28сз0196100 0.1 1024161
12:00−25сз1186100 0.0 1022667
15:00−25сз1282100 0.1 1020926
18:00−29ссз1294100 0.0 101919
21:00−32сз129697 0.0 101919